Hourly Data Report for October 14, 2020

SHEARWATER RCS
NOVA SCOTIA
Current Station Operator: ECCC - MSC

44°37'47.000" N
63°30'48.000" W
24.00 m
8205092
71264
AAW

Download Data

Hourly Data (October 2020)
Hourly Data Report for October 14, 2020
TIME Temp Definition
°C
Dew Point Definition
°C
Rel Hum Definition
%
Wind Dir Definition
10's deg

Wind Spd Definition
km/h
Visibility Definition
km
Stn Press Definition
kPa
Hmdx Definition


Wind Chill Definition


Weather Definition


00:00 12.4 11.3 92 8 20   101.31     LegendNANA
01:00 12.0 11.5 97 8 19   101.19     LegendNANA
02:00 12.9 12.5 97 9 21   101.04     LegendNANA
03:00 13.5 13.1 97 9 23   100.87     LegendNANA
04:00 14.0 13.6 97 10 24   100.74     LegendNANA
05:00 14.8 14.4 97 12 33   100.63     LegendNANA
06:00 15.0 14.6 98 13 28   100.56     LegendNANA
07:00 15.0 14.7 98 13 27   100.48     LegendNANA
08:00 15.1 14.9 99 14 28   100.42     LegendNANA
09:00 15.4 15.2 98 14 26   100.38     LegendNANA
10:00 14.8 14.6 99 15 26   100.32     LegendNANA
11:00 14.8 14.7 99 16 21   100.27     LegendNANA
12:00 14.8 14.6 99 17 26   100.17     LegendNANA
13:00 14.5 14.3 99 17 22   100.15     LegendNANA
14:00 14.9 14.8 99 17 15   100.15     LegendNANA
15:00 15.0 14.9 99 19 14   100.17     LegendNANA
16:00 14.6 14.4 99 20 12   100.23     LegendNANA
17:00 14.4 14.1 98 22 10   100.31     LegendNANA
18:00 13.0 12.7 98 26 7   100.44     LegendNANA
19:00 13.1 11.2 88 29 17   100.61     LegendNANA
20:00 13.1 10.5 84 29 13   100.72     LegendNANA
21:00 13.2 10.0 81 29 13   100.83     LegendNANA
22:00 11.9 9.3 84 29 7   100.92     LegendNANA
23:00 10.8 8.8 88 28 5   101.00     LegendNANA

Notes on Data Quality.

Legend

  • E = Estimated
  • M = Missing
  • NA = Not Available*
  • [empty] = Indicates an unobserved value
Date modified: